Find OneWeb SL0347

NORAD ID: 49280 Int'l Des: 2021-090 Owner: ONEWEBN Country: UK Constellation: oneweb operational
LEOCIRCULARPOLARONEWEB_TYPE

リアルタイム位置

3D地球を読み込み中...

OneWeb SL0347について

説明を読み込み中...

次回通過

Passes for default location (London). Set your location on the main map for personalized predictions.

高度履歴

Loading altitude history...

軌道要素

1 49280U 21090B 26126.83297778 .00000011 00000-0 -48790-5 0 9999
2 49280 87.9152 282.6901 0002033 92.0842 268.0524 13.20774442225581
Epoch: May 6, 2026 • Age: 6 hours

現在のステータス

高度 1192.6 km
速度 7.26 km/s
衛星直下点 70.76°N, 36.63°E
打ち上げ日 Oct 14, 2021
運用期間 4.5 years
タイプ internet

技術仕様

分類 Payload
質量 148.00 kg
乾燥質量 140.00 kg
総質量 148.00 kg
長さ 1.30 m
直径 1.00 m
スパン 5.00 m
形状 Trapezoid+2 pan
製造者 ONEWUS
バスタイプ ARROW
フェーズステータス In Orbit
所有者/国 ONEWEBN/UK

Most Searched